Location: Bu�n Treun
(12.1333°N, 108.3167°E)
Time: 10:02:32
(UTC+00:00)

BEESAT - Pass Details

Date: 29 September 2021
Orbit: 699 x 709 km, 98.6° (Epoch: 16 October)

Event Time Altitude Azimuth Distance (km) Brightness Sun altitude
Rises 11:39:43 0° 23° (NNE) 3,072 ? -15.9°
Reaches altitude 10° 11:42:03 10° 30° (NNE) 2,154 ? -16.4°
Maximum altitude 11:46:32 43° 101° (ESE) 977 ? -17.5°
Drops below altitude 10° 11:51:00 10° 173° (S) 2,157 ? -18.6°
Sets 11:53:20 0° 179° (S) 3,075 ? -19.2°
